When you browse on this site, cookies collect data to enhance your experience and personalize the content and advertising you see.
Visit our Privacy Policy to learn more. By continuing to use the site, you agree to this use of cookies and data.
  • In Czech Republic
  • List of Countries
  • For 7 days
  • Water Temperature
  • Weather Map
  • Weather Widgets
  • user-avatar
    Login

    Hourly Weather Otola

    Today, 31 May, Sunday

    Time Temperature Precipitation Wind Pressure Humidity
    00:00 +7°C° 0.9 mm 6 mps 733 mmHg 89%
    01:00 +6°C° 0 mm 7 mps 733 mmHg 93%
    02:00 +6°C° 2.7 mm 7 mps 732 mmHg 94%
    03:00 +6°C° 2.7 mm 7 mps 732 mmHg 95%
    04:00 +6°C° 2.7 mm 7 mps 731 mmHg 96%
    05:00 +8°C° 2.7 mm 7 mps 731 mmHg 96%
    06:00 +8°C° 2.7 mm 7 mps 731 mmHg 96%
    07:00 +9°C° 0 mm 6 mps 731 mmHg 96%
    08:00 +9°C° 0.9 mm 6 mps 732 mmHg 95%
    09:00 +9°C° 0.9 mm 6 mps 732 mmHg 95%
    10:00 +10°C° 0.9 mm 6 mps 732 mmHg 94%
    11:00 +10°C° 0.4 mm 6 mps 732 mmHg 93%
    12:00 +10°C° 0.4 mm 6 mps 733 mmHg 93%
    13:00 +11°C° 0.4 mm 6 mps 733 mmHg 92%
    14:00 +11°C° 0 mm 6 mps 733 mmHg 92%
    15:00 +12°C° 0 mm 5 mps 733 mmHg 91%
    16:00 +13°C° 0 mm 5 mps 734 mmHg 90%
    17:00 +13°C° 0 mm 5 mps 734 mmHg 90%
    18:00 +13°C° 0 mm 4 mps 734 mmHg 90%
    19:00 +13°C° 0 mm 4 mps 735 mmHg 90%
    20:00 +12°C° 0.1 mm 4 mps 735 mmHg 91%
    21:00 +12°C° 0.1 mm 3 mps 736 mmHg 92%
    22:00 +11°C° 0.1 mm 3 mps 736 mmHg 93%
    23:00 +11°C° 0 mm 4 mps 736 mmHg 93%

    Tomorrow, 1 June, Monday

    Time Temperature Precipitation Wind Pressure Humidity
    00:00 +10°C° 0 mm 4 mps 737 mmHg 93%
    01:00 +10°C° 0 mm 4 mps 737 mmHg 93%
    02:00 +8°C° 0 mm 4 mps 737 mmHg 94%
    03:00 +8°C° 0 mm 3 mps 737 mmHg 94%
    04:00 +8°C° 0 mm 3 mps 737 mmHg 95%
    05:00 +9°C° 0 mm 3 mps 737 mmHg 91%
    06:00 +10°C° 0 mm 4 mps 737 mmHg 86%
    07:00 +11°C° 0 mm 4 mps 738 mmHg 82%
    08:00 +13°C° 0 mm 4 mps 738 mmHg 74%
    09:00 +14°C° 0 mm 5 mps 738 mmHg 66%
    10:00 +15°C° 0 mm 6 mps 738 mmHg 59%
    11:00 +16°C° 0 mm 6 mps 738 mmHg 58%
    12:00 +16°C° 0 mm 6 mps 738 mmHg 57%
    13:00 +16°C° 0 mm 6 mps 738 mmHg 56%
    14:00 +16°C° 0 mm 6 mps 738 mmHg 56%
    15:00 +15°C° 0 mm 6 mps 738 mmHg 57%
    16:00 +15°C° 0 mm 6 mps 738 mmHg 58%
    17:00 +14°C° 0 mm 5 mps 737 mmHg 63%
    18:00 +12°C° 0 mm 4 mps 737 mmHg 68%
    19:00 +11°C° 0 mm 3 mps 737 mmHg 73%
    20:00 +11°C° 0 mm 3 mps 737 mmHg 74%
    21:00 +10°C° 0 mm 3 mps 737 mmHg 75%
    22:00 +10°C° 0 mm 2 mps 737 mmHg 76%
    23:00 +10°C° 0.2 mm 3 mps 737 mmHg 81%

    Day after tomorrow, 2 June, Tuesday

    Time Temperature Precipitation Wind Pressure Humidity
    00:00 +9°C° 0.2 mm 3 mps 736 mmHg 87%
    01:00 +8°C° 0.2 mm 4 mps 736 mmHg 92%
    02:00 +8°C° 0 mm 3 mps 736 mmHg 93%
    03:00 +8°C° 0 mm 3 mps 735 mmHg 94%
    04:00 +7°C° 0 mm 3 mps 735 mmHg 95%
    05:00 +8°C° 0 mm 3 mps 735 mmHg 91%
    06:00 +8°C° 0 mm 4 mps 735 mmHg 86%
    07:00 +11°C° 0 mm 4 mps 735 mmHg 82%
    08:00 +12°C° 0.2 mm 5 mps 735 mmHg 76%
    09:00 +13°C° 0.2 mm 5 mps 735 mmHg 70%
    10:00 +14°C° 0.2 mm 5 mps 734 mmHg 64%
    11:00 +14°C° 0.2 mm 6 mps 734 mmHg 62%
    12:00 +15°C° 0.2 mm 6 mps 734 mmHg 59%
    13:00 +16°C° 0.2 mm 6 mps 733 mmHg 57%
    14:00 +16°C° 0.2 mm 6 mps 733 mmHg 58%
    15:00 +15°C° 0.2 mm 6 mps 732 mmHg 60%
    16:00 +15°C° 0.2 mm 6 mps 732 mmHg 61%
    17:00 +14°C° 0.1 mm 5 mps 732 mmHg 67%
    18:00 +13°C° 0.1 mm 4 mps 732 mmHg 72%
    19:00 +12°C° 0.1 mm 3 mps 732 mmHg 78%
    20:00 +11°C° 0 mm 3 mps 731 mmHg 82%
    21:00 +9°C° 0 mm 3 mps 731 mmHg 86%
    22:00 +8°C° 0 mm 3 mps 731 mmHg 90%
    23:00 +8°C° 0 mm 2 mps 731 mmHg 91%

    3 June, Wednesday

    Time Temperature Precipitation Wind Pressure Humidity
    00:00 +7°C° 0 mm 2 mps 731 mmHg 92%
    01:00 +7°C° 0 mm 2 mps 731 mmHg 94%
    02:00 +7°C° 0 mm 2 mps 730 mmHg 94%
    03:00 +7°C° 0 mm 2 mps 730 mmHg 94%
    04:00 +7°C° 0 mm 2 mps 730 mmHg 95%
    05:00 +8°C° 0 mm 3 mps 730 mmHg 91%
    06:00 +9°C° 0 mm 3 mps 730 mmHg 87%
    07:00 +10°C° 0 mm 3 mps 730 mmHg 83%
    08:00 +12°C° 0.2 mm 3 mps 730 mmHg 78%
    09:00 +13°C° 0.2 mm 3 mps 730 mmHg 74%
    10:00 +14°C° 0.2 mm 3 mps 730 mmHg 70%
    11:00 +14°C° 0.3 mm 3 mps 730 mmHg 69%
    12:00 +14°C° 0.3 mm 3 mps 729 mmHg 69%
    13:00 +16°C° 0.3 mm 3 mps 729 mmHg 68%
    14:00 +16°C° 0.2 mm 3 mps 729 mmHg 68%
    15:00 +16°C° 0.2 mm 2 mps 729 mmHg 68%
    16:00 +16°C° 0.2 mm 2 mps 729 mmHg 68%
    17:00 +15°C° 0.1 mm 1 mps 728 mmHg 72%
    18:00 +14°C° 0.1 mm 1 mps 728 mmHg 76%
    19:00 +13°C° 0.1 mm 0 mps 728 mmHg 81%
    20:00 +13°C° 0 mm 1 mps 728 mmHg 82%
    21:00 +12°C° 0 mm 1 mps 728 mmHg 84%
    22:00 +10°C° 0 mm 1 mps 729 mmHg 85%
    23:00 +10°C° 0 mm 1 mps 728 mmHg 86%

    4 June, Thursday

    Time Temperature Precipitation Wind Pressure Humidity
    00:00 +10°C° 0 mm 1 mps 728 mmHg 86%
    01:00 +10°C° 0 mm 1 mps 728 mmHg 86%
    02:00 +9°C° 0 mm 1 mps 728 mmHg 87%
    03:00 +9°C° 0 mm 1 mps 728 mmHg 87%
    04:00 +9°C° 0 mm 1 mps 728 mmHg 88%
    05:00 +11°C° 0 mm 1 mps 728 mmHg 84%
    06:00 +13°C° 0 mm 2 mps 728 mmHg 80%
    07:00 +15°C° 0 mm 2 mps 728 mmHg 76%
    08:00 +16°C° 0 mm 2 mps 728 mmHg 69%
    09:00 +17°C° 0 mm 2 mps 728 mmHg 62%
    10:00 +19°C° 0 mm 2 mps 728 mmHg 55%
    11:00 +20°C° 0 mm 2 mps 727 mmHg 53%
    12:00 +21°C° 0 mm 2 mps 727 mmHg 52%
    13:00 +23°C° 0 mm 2 mps 726 mmHg 50%
    14:00 +22°C° 0.1 mm 3 mps 726 mmHg 54%
    15:00 +22°C° 0.1 mm 3 mps 726 mmHg 57%
    16:00 +22°C° 0.1 mm 4 mps 726 mmHg 60%
    17:00 +20°C° 0.3 mm 4 mps 725 mmHg 66%
    18:00 +19°C° 0.3 mm 4 mps 725 mmHg 72%
    19:00 +17°C° 0.3 mm 4 mps 724 mmHg 78%
    20:00 +17°C° 0 mm 4 mps 724 mmHg 79%
    21:00 +15°C° 0 mm 5 mps 724 mmHg 80%
    22:00 +15°C° 0 mm 5 mps 724 mmHg 81%
    23:00 +15°C° 0.2 mm 6 mps 724 mmHg 84%

    5 June, Friday

    Time Temperature Precipitation Wind Pressure Humidity
    00:00 +15°C° 0.2 mm 6 mps 724 mmHg 86%
    01:00 +14°C° 0.2 mm 7 mps 724 mmHg 89%
    02:00 +14°C° 0 mm 7 mps 724 mmHg 89%
    03:00 +12°C° 0 mm 7 mps 725 mmHg 89%
    04:00 +11°C° 0 mm 6 mps 725 mmHg 88%
    05:00 +11°C° 0 mm 6 mps 726 mmHg 85%
    06:00 +11°C° 0 mm 6 mps 726 mmHg 83%
    07:00 +13°C° 0 mm 6 mps 727 mmHg 80%
    08:00 +12°C° 0.1 mm 7 mps 727 mmHg 76%
    09:00 +14°C° 0.1 mm 7 mps 727 mmHg 72%
    10:00 +13°C° 0.1 mm 8 mps 728 mmHg 68%
    11:00 +15°C° 0 mm 7 mps 728 mmHg 65%
    12:00 +15°C° 0 mm 7 mps 728 mmHg 61%
    13:00 +16°C° 0 mm 7 mps 728 mmHg 58%
    14:00 +16°C° 0 mm 6 mps 728 mmHg 57%
    15:00 +16°C° 0 mm 6 mps 728 mmHg 56%
    16:00 +17°C° 0 mm 6 mps 729 mmHg 56%
    17:00 +15°C° 0 mm 4 mps 729 mmHg 61%
    18:00 +14°C° 0 mm 3 mps 729 mmHg 67%
    19:00 +14°C° 0 mm 2 mps 729 mmHg 73%
    20:00 +13°C° 0 mm 2 mps 729 mmHg 74%
    21:00 +12°C° 0 mm 1 mps 730 mmHg 74%
    22:00 +11°C° 0 mm 1 mps 730 mmHg 75%
    23:00 +11°C° 0 mm 1 mps 730 mmHg 77%
    Show more